Location: Unspecified
(42.3650°N, 71.1030°W)
Time: 12:40:36
(UTC+00:00)

Courier 1B - Pass Details

Date: 26 June 2024
Orbit: 962 x 1209 km, 28.3° (Epoch: 25 July)

Event Time Altitude Azimuth Distance (km) Brightness Sun altitude
Rises 08:53:36 0° 253° (WSW) 3,931 - -3.2°
Exits shadow 08:54:33 - 249° (WSW) 3,706 9.9 -3.1°
Reaches altitude 10° 08:58:28 10° 225° (SW) 3,029 9.4 -2.5°
Maximum altitude 09:01:09 12° 204° (SSW) 2,893 9.5 -2.1°
Drops below altitude 10° 09:03:52 10° 183° (S) 3,080 9.8 -1.7°
Sets 09:08:58 0° 155° (SSE) 4,077 10.7 -0.9°
